N1IJV-10 Weather Reports


Display with metric or nautical units.
time (UTC)temp
F
wind
direction
speed
MPH
gust
MPH
rain 1hr
in
rain 24hr
in
rain mn
in
humidity
%
barometer
mb
20260510180207 63 252 3.0 3.0 0.00 0.00 0.00 33 1018.7
20260510175702 63 29 3.0 5.0 0.00 0.00 0.00 39 1018.7
20260510175158 63 26 4.0 6.0 0.00 0.00 0.00 36 1018.6
20260510174656 62 30 2.0 6.0 0.00 0.00 0.00 38 1018.6
20260510174153 63 128 1.0 6.0 0.00 0.00 0.00 32 1018.9
20260510173649 64 195 3.0 7.0 0.00 0.00 0.00 34 1018.8
20260510173145 63 79 3.0 6.0 0.00 0.00 0.00 39 1018.7
20260510172640 63 102 0.0 3.0 0.00 0.00 0.00 41 1018.7
20260510172137 64 67 2.0 3.0 0.00 0.00 0.00 34 1019.0
20260510171634 63 52 1.0 5.0 0.00 0.00 0.00 36 1019.1
20260510171132 62 166 2.0 5.0 0.00 0.00 0.00 38 1019.0
20260510170628 63 95 2.0 3.0 0.00 0.00 0.00 38 1019.0
20260510170124 62 274 7.0 11.0 0.00 0.00 0.00 38 1019.1
20260510165620 63 24 2.0 3.0 0.00 0.00 0.00 36 1018.9
20260510165116 61 99 0.0 5.0 0.00 0.00 0.00 37 1018.8
20260510164614 63 270 4.0 6.0 0.00 0.00 0.00 35 1018.9
20260510164110 62 29 2.0 2.0 0.00 0.00 0.00 42 1018.9
20260510163605 60 317 2.0 8.0 0.00 0.00 0.00 39 1018.8
20260510163102 61 97 0.0 3.0 0.00 0.00 0.00 43 1018.6
20260510162556 61 168 2.0 2.0 0.00 0.00 0.00 39 1018.8
20260510162053 61 80 2.0 5.0 0.00 0.00 0.00 37 1018.5
20260510161549 62 80 2.0 3.0 0.00 0.00 0.00 37 1018.6
20260510161046 61 104 1.0 5.0 0.00 0.00 0.00 40 1018.6
20260510160543 61 67 2.0 5.0 0.00 0.00 0.00 41 1018.6
20260510160043 61 155 1.0 2.0 0.00 0.00 0.00 42 1018.5
20260510155539 62 137 2.0 3.0 0.00 0.00 0.00 43 1018.3
20260510155036 62 145 0.0 6.0 0.00 0.00 0.00 36 1018.4
20260510154531 63 97 1.0 2.0 0.00 0.00 0.00 46 1018.4
20260510154027 62 73 0.0 1.0 0.00 0.00 0.00 42 1018.5
20260510153522 61 96 1.0 2.0 0.00 0.00 0.00 42 1018.3
20260510153019 61 76 1.0 1.0 0.00 0.00 0.00 38 1018.4
20260510152516 60 36 4.0 5.0 0.00 0.00 0.00 38 1018.5
20260510152012 60 68 1.0 1.0 0.00 0.00 0.00 42 1018.6
20260510151509 60 168 1.0 3.0 0.00 0.00 0.00 37 1018.3
20260510151007 59 111 0.0 3.0 0.00 0.00 0.00 38 1018.3
20260510150501 60 178 3.0 6.0 0.00 0.00 0.00 38 1018.4
20260510145957 60 134 1.0 2.0 0.00 0.00 0.00 38 1018.2
20260510145454 59 171 0.0 2.0 0.00 0.00 0.00 39 1018.3
20260510144951 59 129 2.0 3.0 0.00 0.00 0.00 41 1018.3
20260510144448 60 97 1.0 1.0 0.00 0.00 0.00 37 1018.5
20260510143943 60 60 2.0 3.0 0.00 0.00 0.00 39 1018.4
20260510143439 58 95 0.0 1.0 0.00 0.00 0.00 40 1018.4
20260510142936 59 98 0.0 1.0 0.00 0.00 0.00 39 1018.3
20260510142427 59 83 0.0 2.0 0.00 0.00 0.00 40 1018.3
20260510141924 58 82 2.0 3.0 0.00 0.00 0.00 39 1018.2
20260510141420 58 52 1.0 2.0 0.00 0.00 0.00 39 1018.3
20260510140918 58 104 1.0 1.0 0.00 0.00 0.00 40 1018.2
20260510140413 57 80 1.0 2.0 0.00 0.00 0.00 39 1018.1
20260510135907 56 59 1.0 2.0 0.00 0.00 0.00 41 1017.9
20260510135404 56 108 0.0 2.0 0.00 0.00 0.00 41 1018.2
20260510134901 55 87 0.0 1.0 0.00 0.00 0.00 42 1018.0
20260510134357 54 98 1.0 3.0 0.00 0.00 0.00 43 1018.0
20260510133854 54 133 1.0 1.0 0.00 0.00 0.00 44 1017.7
20260510133350 54 66 3.0 5.0 0.00 0.00 0.00 42 1017.8
20260510132846 53 85 1.0 2.0 0.00 0.00 0.00 46 1017.8
20260510132344 53 73 1.0 6.0 0.00 0.00 0.00 46 1017.8
20260510131840 52 80 1.0 5.0 0.00 0.00 0.00 48 1017.6
20260510131338 52 94 0.0 2.0 0.00 0.00 0.00 50 1017.6
20260510130834 52 82 2.0 3.0 0.00 0.00 0.00 51 1017.7
20260510130332 51 48 1.0 2.0 0.00 0.00 0.00 52 1017.4
20260510125828 51 42 2.0 3.0 0.00 0.00 0.00 53 1017.2
20260510125324 50 75 1.0 1.0 0.00 0.00 0.00 57 1017.4
20260510124821 50 103 0.0 1.0 0.00 0.00 0.00 61 1017.6
20260510124318 49 108 1.0 2.0 0.00 0.00 0.00 61 1017.4
20260510123814 48 57 0.0 1.0 0.00 0.00 0.00 65 1017.2
20260510123310 48 111 1.0 1.0 0.00 0.00 0.00 66 1017.2
20260510122806 48 71 2.0 3.0 0.00 0.00 0.00 66 1017.0
20260510122306 46 67 1.0 2.0 0.00 0.00 0.00 70 1017.0
20260510121759 46 85 0.0 0.0 0.00 0.00 0.00 74 1016.8
20260510121256 45 99 0.0 1.0 0.00 0.00 0.00 75 1016.9
20260510120753 45 89 0.0 2.0 0.00 0.00 0.00 73 1016.9
20260510120250 44 96 0.0 0.0 0.00 0.00 0.00 78 1016.9
20260510115746 43 93 0.0 0.0 0.00 0.00 0.00 80 1016.6
20260510115244 43 90 0.0 0.0 0.00 0.00 0.00 82 1016.7
20260510114738 42 97 0.0 0.0 0.00 0.00 0.00 81 1016.5
20260510114236 43 92 0.0 0.0 0.00 0.00 0.00 83 1016.7
20260510113731 42 94 0.0 0.0 0.00 0.00 0.00 85 1016.5
20260510113229 41 92 0.0 0.0 0.00 0.00 0.00 88 1016.4
20260510112725 40 92 0.0 0.0 0.00 0.00 0.00 89 1016.3
20260510112222 39 92 0.0 0.0 0.00 0.00 0.00 91 1016.1
20260510111717 37 92 0.0 0.0 0.00 0.00 0.00 90 1016.2
20260510111214 38 92 0.0 0.0 0.00 0.00 0.00 90 1016.2
20260510110709 38 92 0.0 0.0 0.00 0.00 0.00 90 1016.0
20260510110207 38 94 0.0 0.0 0.00 0.00 0.00 90 1015.9
20260510105707 38 90 0.0 0.0 0.00 0.00 0.00 90 1015.9
20260510105207 38 95 0.0 0.0 0.00 0.00 0.00 89 1015.8
20260510104704 38 91 0.0 0.0 0.00 0.00 0.00 88 1015.7
20260510104201 38 92 0.0 0.0 0.00 0.00 0.00 88 1015.5
20260510103657 38 90 0.0 0.0 0.00 0.00 0.00 88 1015.6
20260510103154 38 94 0.0 0.0 0.00 0.00 0.00 87 1015.6
20260510102654 38 99 0.0 0.0 0.00 0.00 0.00 87 1015.5
20260510102151 39 90 0.0 0.0 0.00 0.00 0.00 87 1015.5
20260510101648 39 100 0.0 0.0 0.00 0.00 0.00 86 1015.6
20260510101147 39 94 0.0 0.0 0.00 0.00 0.00 86 1015.2
20260510100642 39 95 0.0 0.0 0.00 0.00 0.00 86 1015.2
20260510100140 39 93 0.0 0.0 0.00 0.00 0.00 85 1015.1
20260510095635 39 93 0.0 0.0 0.00 0.00 0.00 84 1015.0
20260510095130 40 90 0.0 0.0 0.00 0.00 0.00 83 1015.2
20260510094629 40 91 0.0 0.0 0.00 0.00 0.00 82 1014.9
20260510094125 40 92 0.0 0.0 0.00 0.00 0.00 81 1015.0
20260510093621 41 92 0.0 0.0 0.00 0.00 0.00 81 1014.9
20260510093119 41 92 0.0 0.0 0.00 0.00 0.00 81 1014.7
20260510092615 41 86 0.0 0.0 0.00 0.00 0.00 81 1014.8
20260510092115 41 89 0.0 0.0 0.00 0.00 0.00 80 1014.9
20260510091612 41 89 0.0 0.0 0.00 0.00 0.00 79 1015.0
20260510091108 42 89 0.0 0.0 0.00 0.00 0.00 78 1015.1
20260510090605 42 89 0.0 0.0 0.00 0.00 0.00 76 1014.8
20260510090101 42 87 0.0 0.0 0.00 0.00 0.00 75 1015.0
20260510085556 43 87 0.0 0.0 0.00 0.00 0.00 74 1014.9
20260510085052 43 86 0.0 0.0 0.00 0.00 0.00 72 1014.9
20260510084549 44 85 0.0 0.0 0.00 0.00 0.00 71 1014.9
20260510084045 45 86 0.0 0.0 0.00 0.00 0.00 69 1014.6
20260510083542 45 85 0.0 0.0 0.00 0.00 0.00 66 1015.0
20260510083038 46 81 0.0 0.0 0.00 0.00 0.00 64 1014.7
20260510082535 46 82 0.0 1.0 0.00 0.00 0.00 64 1014.8
20260510082030 46 77 1.0 1.0 0.00 0.00 0.00 63 1014.7
20260510081526 47 78 1.0 2.0 0.00 0.00 0.00 62 1014.7
20260510081022 47 60 1.0 1.0 0.00 0.00 0.00 62 1014.4
20260510080521 47 82 1.0 1.0 0.00 0.00 0.00 62 1014.3
20260510080018 48 64 1.0 2.0 0.00 0.00 0.00 61 1014.4
20260510075515 48 73 2.0 2.0 0.00 0.00 0.00 60 1014.1
20260510075012 48 19 3.0 3.0 0.00 0.00 0.00 60 1013.8
20260510074510 48 60 1.0 3.0 0.00 0.00 0.00 60 1013.9
20260510074005 48 63 2.0 5.0 0.00 0.00 0.00 60 1013.7
20260510073501 48 73 0.0 2.0 0.00 0.00 0.00 64 1013.6
20260510072958 48 54 1.0 2.0 0.00 0.00 0.00 63 1013.7
20260510072455 48 79 0.0 3.0 0.00 0.00 0.00 64 1013.8
20260510071950 48 24 1.0 2.0 0.00 0.00 0.00 67 1013.7
20260510071446 48 65 1.0 3.0 0.00 0.00 0.00 68 1013.3
20260510070945 48 46 2.0 2.0 0.00 0.00 0.00 70 1013.1
20260510070442 48 74 1.0 5.0 0.00 0.00 0.00 70 1013.3
20260510065937 48 72 1.0 1.0 0.00 0.00 0.00 72 1013.3
20260510065435 46 53 3.0 3.0 0.00 0.00 0.00 77 1013.1
20260510064930 44 94 0.0 0.0 0.00 0.00 0.00 85 1013.1
20260510064428 44 97 0.0 0.0 0.00 0.00 0.00 87 1012.9
20260510063925 44 87 0.0 0.0 0.00 0.00 0.00 88 1012.9
20260510063421 44 76 0.0 0.0 0.00 0.00 0.00 89 1012.8
20260510062919 44 83 0.0 0.0 0.00 0.00 0.00 89 1012.6
20260510062414 43 94 0.0 0.0 0.00 0.00 0.00 88 1012.5
20260510061910 44 95 0.0 0.0 0.00 0.00 0.00 87 1012.8
20260510061407 44 106 0.0 0.0 0.00 0.00 0.00 87 1012.7
20260510060902 44 93 0.0 0.0 0.00 0.00 0.00 87 1012.5
20260510060359 44 84 0.0 0.0 0.00 0.00 0.00 87 1012.3
20260510055856 44 110 0.0 0.0 0.00 0.00 0.00 87 1012.4
20260510055355 44 83 0.0 0.0 0.00 0.00 0.00 85 1012.5
20260510054849 44 95 0.0 0.0 0.00 0.00 0.00 84 1012.5
20260510054345 45 94 0.0 0.0 0.00 0.00 0.00 84 1012.4
20260510053840 45 93 0.0 0.0 0.00 0.00 0.00 83 1012.3
20260510053335 45 97 0.0 0.0 0.00 0.00 0.00 83 1012.3
20260510052832 46 100 0.0 0.0 0.00 0.00 0.00 83 1012.3
20260510052327 46 100 0.0 0.0 0.00 0.00 0.00 83 1012.2
20260510051824 46 96 0.0 0.0 0.00 0.00 0.00 83 1011.8
20260510051321 46 105 0.0 0.0 0.00 0.00 0.00 84 1012.1
20260510050818 46 94 0.0 0.0 0.00 0.00 0.00 84 1011.9
20260510050314 46 91 1.0 2.0 0.00 0.00 0.00 85 1011.6
20260510045812 46 93 0.0 0.0 0.00 0.00 0.00 84 1011.6
20260510045308 47 113 0.0 0.0 0.00 0.00 0.00 83 1011.5
20260510044805 47 103 0.0 0.0 0.00 0.00 0.00 81 1011.3
20260510044302 46 93 0.0 0.0 0.00 0.00 0.00 80 1011.5
20260510043758 47 90 0.0 0.0 0.00 0.00 0.00 80 1011.3
20260510043249 47 92 0.0 0.0 0.00 0.00 0.00 78 1011.1
20260510042746 47 90 0.0 0.0 0.00 0.00 0.00 75 1011.1
20260510042242 48 89 0.0 0.0 0.00 0.00 0.00 74 1010.9
20260510041739 48 93 0.0 0.0 0.00 0.00 0.00 74 1011.0
20260510041236 49 93 0.0 0.0 0.00 0.00 0.00 73 1010.8
20260510040733 49 94 0.0 0.0 0.00 0.00 0.00 72 1010.7
20260510040230 49 93 0.0 0.0 0.00 0.00 0.00 71 1010.6
20260510035725 50 88 0.0 0.0 0.00 0.00 0.00 69 1010.5
20260510035221 50 87 0.0 0.0 0.00 0.00 0.00 69 1010.7
20260510034717 51 87 0.0 0.0 0.00 0.00 0.00 67 1010.7
20260510034216 51 84 0.0 0.0 0.00 0.00 0.00 65 1010.6
20260510033711 51 87 0.0 0.0 0.00 0.00 0.00 65 1010.5
20260510033210 52 86 0.0 0.0 0.00 0.00 0.00 63 1010.7
20260510032705 52 93 0.0 0.0 0.00 0.00 0.00 62 1010.3
20260510032201 53 93 0.0 0.0 0.00 0.00 0.00 61 1010.4
20260510031655 53 89 0.0 1.0 0.00 0.00 0.00 60 1010.4
20260510031152 53 88 0.0 0.0 0.00 0.00 0.00 60 1010.4
20260510030646 54 81 0.0 1.0 0.00 0.00 0.00 60 1010.2
20260510030145 55 70 1.0 1.0 0.00 0.00 0.00 56 1010.2
20260510025642 55 71 0.0 1.0 0.00 0.00 0.00 55 1010.0
20260510025139 55 79 1.0 2.0 0.00 0.00 0.00 54 1009.8
20260510024635 55 83 0.0 2.0 0.00 0.00 0.00 54 1009.8
20260510024132 56 55 0.0 2.0 0.00 0.00 0.00 54 1009.8
20260510023628 56 84 1.0 2.0 0.00 0.00 0.00 54 1009.6
20260510023126 56 75 0.0 1.0 0.00 0.00 0.00 54 1009.5
20260510022625 57 89 0.0 1.0 0.00 0.00 0.00 54 1009.5
20260510022120 57 88 1.0 2.0 0.00 0.00 0.00 53 1009.4
20260510021611 57 72 1.0 3.0 0.00 0.00 0.00 52 1009.0
20260510021108 58 59 1.0 2.0 0.00 0.00 0.00 52 1008.7
20260510020602 59 88 1.0 1.0 0.00 0.00 0.00 51 1008.7
20260510020058 60 58 1.0 2.0 0.00 0.00 0.00 48 1008.5
20260510015554 62 66 2.0 3.0 0.00 0.00 0.00 46 1008.5
20260510015050 62 90 1.0 1.0 0.00 0.00 0.00 42 1008.3
20260510014546 62 61 1.0 2.0 0.00 0.00 0.00 42 1008.0
20260510014043 63 82 0.0 3.0 0.00 0.00 0.00 42 1008.0
20260510013538 63 67 1.0 2.0 0.00 0.00 0.00 42 1007.9
20260510013034 63 46 3.0 3.0 0.00 0.00 0.00 42 1007.5
20260510012528 63 53 1.0 2.0 0.00 0.00 0.00 44 1007.6
20260510012025 63 66 1.0 1.0 0.00 0.00 0.00 43 1007.5
20260510011525 64 40 3.0 5.0 0.00 0.00 0.00 41 1007.3
20260510011021 64 76 2.0 2.0 0.00 0.00 0.00 42 1007.3
20260510010518 65 72 1.0 3.0 0.00 0.00 0.00 41 1007.1
20260510010015 65 116 2.0 6.0 0.00 0.00 0.00 40 1007.1
20260510005510 65 38 1.0 2.0 0.00 0.00 0.00 43 1006.9
20260510005008 66 21 5.0 6.0 0.00 0.00 0.00 40 1007.0
20260510004505 66 335 2.0 5.0 0.00 0.00 0.00 43 1007.0
20260510004003 66 103 0.0 1.0 0.00 0.00 0.00 43 1006.3
20260510003500 66 81 1.0 3.0 0.00 0.00 0.00 42 1006.7
20260510002955 67 6 2.0 5.0 0.00 0.00 0.00 40 1006.3
20260510002451 67 32 3.0 3.0 0.00 0.00 0.00 38 1006.0
20260510001947 68 47 3.0 6.0 0.00 0.00 0.00 38 1005.9
20260510001445 68 8 3.0 5.0 0.00 0.00 0.00 37 1006.0
20260510000943 68 326 5.0 10.0 0.00 0.00 0.00 37 1005.7
20260510000440 68 277 2.0 6.0 0.00 0.00 0.00 38 1005.7
20260509235935 69 44 3.0 5.0 0.00 0.00 0.00 37 1005.7
20260509235432 69 12 5.0 9.0 0.00 0.00 0.00 38 1005.5
20260509234928 69 276 4.0 5.0 0.00 0.00 0.00 39 1005.4
20260509234425 69 264 4.0 10.0 0.00 0.00 0.00 38 1005.5
20260509233923 70 260 3.0 6.0 0.00 0.00 0.00 39 1005.5
20260509233421 70 327 2.0 2.0 0.00 0.00 0.00 39 1005.4
20260509232916 70 338 2.0 5.0 0.00 0.00 0.00 36 1005.3
20260509232415 70 47 2.0 8.0 0.00 0.00 0.00 36 1005.2
20260509231910 70 348 3.0 6.0 0.00 0.00 0.00 37 1005.2
20260509231407 70 263 3.0 8.0 0.00 0.00 0.00 36 1005.1
20260509230905 71 333 3.0 8.0 0.00 0.00 0.00 36 1005.0
20260509230401 71 137 5.0 7.0 0.00 0.00 0.00 37 1004.8
20260509225857 71 86 2.0 6.0 0.00 0.00 0.00 38 1004.8
20260509225354 71 297 3.0 9.0 0.00 0.00 0.00 38 1004.8
20260509224849 71 270 4.0 7.0 0.00 0.00 0.00 36 1004.8
20260509224345 71 1 5.0 10.0 0.00 0.00 0.00 33 1004.7
20260509223843 72 213 4.0 6.0 0.00 0.00 0.00 38 1004.5
20260509223340 71 307 5.0 8.0 0.00 0.00 0.00 34 1004.5
20260509222837 72 307 7.0 9.0 0.00 0.00 0.00 34 1004.6
20260509222332 72 313 5.0 7.0 0.00 0.00 0.00 34 1004.5
20260509221827 72 35 2.0 7.0 0.00 0.00 0.00 35 1004.5
20260509221325 72 82 4.0 7.0 0.00 0.00 0.00 35 1004.4
20260509220825 73 275 6.0 8.0 0.00 0.00 0.00 35 1004.3
20260509220321 73 210 4.0 7.0 0.00 0.00 0.00 36 1004.2
20260509215817 73 17 3.0 7.0 0.00 0.00 0.00 36 1004.4
20260509215314 73 58 3.0 6.0 0.00 0.00 0.00 35 1004.3
20260509214811 73 289 4.0 10.0 0.00 0.00 0.00 34 1004.1
20260509214308 73 358 3.0 5.0 0.00 0.00 0.00 34 1004.1
20260509213805 73 303 7.0 10.0 0.00 0.00 0.00 34 1004.1
20260509213300 73 1 3.0 5.0 0.00 0.00 0.00 36 1004.0
20260509212758 72 76 2.0 7.0 0.00 0.00 0.00 36 1003.7
20260509212255 73 45 4.0 7.0 0.00 0.00 0.00 37 1004.0
20260509211750 74 287 4.0 8.0 0.00 0.00 0.00 36 1003.9
20260509211247 74 325 5.0 8.0 0.00 0.00 0.00 34 1003.6
20260509210743 74 224 5.0 7.0 0.00 0.00 0.00 34 1003.7
20260509210242 74 326 3.0 6.0 0.00 0.00 0.00 36 1003.7
20260509205741 73 85 3.0 8.0 0.00 0.00 0.00 39 1003.6
20260509205236 74 301 7.0 9.0 0.00 0.00 0.00 35 1003.6
20260509204732 73 12 5.0 8.0 0.00 0.00 0.00 36 1003.6
20260509204229 75 348 5.0 8.0 0.00 0.00 0.00 34 1003.5
20260509203725 75 27 3.0 7.0 0.00 0.00 0.00 34 1003.7
20260509203223 75 295 3.0 9.0 0.00 0.00 0.00 37 1003.5
20260509202719 75 281 5.0 9.0 0.00 0.00 0.00 34 1003.5
20260509202215 72 260 5.0 7.0 0.00 0.00 0.00 38 1003.5
20260509201709 72 43 4.0 8.0 0.00 0.00 0.00 36 1003.6
20260509201207 73 26 3.0 7.0 0.00 0.00 0.00 37 1003.6
20260509200703 73 185 3.0 7.0 0.00 0.00 0.00 35 1003.5
20260509200157 74 279 3.0 7.0 0.00 0.00 0.00 34 1003.8
20260509195653 74 278 3.0 6.0 0.00 0.00 0.00 36 1003.6
20260509195149 71 267 4.0 8.0 0.00 0.00 0.00 37 1003.7
20260509194643 72 268 4.0 7.0 0.00 0.00 0.00 38 1003.6
20260509194141 73 265 4.0 7.0 0.00 0.00 0.00 36 1003.7
20260509193636 71 306 7.0 9.0 0.00 0.00 0.00 36 1003.8
20260509193132 71 290 7.0 9.0 0.00 0.00 0.00 36 1003.7
20260509192629 72 253 5.0 6.0 0.00 0.00 0.00 40 1003.6
20260509192123 71 244 5.0 6.0 0.00 0.00 0.00 40 1003.7
20260509191618 71 283 3.0 6.0 0.00 0.00 0.00 38 1003.8
20260509191115 70 216 4.0 6.0 0.00 0.00 0.00 39 1003.9
20260509190611 71 166 5.0 7.0 0.00 0.00 0.00 37 1003.8
20260509190109 72 289 5.0 8.0 0.00 0.00 0.00 36 1003.7
20260509185606 72 38 3.0 5.0 0.00 0.00 0.00 37 1003.6
20260509185102 71 263 5.0 6.0 0.00 0.00 0.00 39 1003.4
20260509184601 72 300 5.0 7.0 0.00 0.00 0.00 35 1003.6
20260509184057 73 287 4.0 8.0 0.00 0.00 0.00 33 1003.6
20260509183552 74 74 1.0 5.0 0.00 0.00 0.00 36 1003.4
20260509183048 73 132 2.0 5.0 0.00 0.00 0.00 41 1003.5
20260509182545 72 263 4.0 6.0 0.00 0.00 0.00 35 1003.4
20260509182042 72 206 3.0 5.0 0.00 0.00 0.00 38 1003.5
20260509181540 72 264 4.0 6.0 0.00 0.00 0.00 38 1003.6
20260509181037 71 91 3.0 6.0 0.00 0.00 0.00 39 1003.6
20260509180532 72 245 4.0 7.0 0.00 0.00 0.00 40 1003.5